Location: El Mouella
(16.4949°N, 9.1594°W)
Time: 18:34:53
(UTC+00:00)

CZ-2C R/B - Visible Passes

Search period start: 26 September 2020 00:00
Search period end: 06 October 2020 00:00
Orbit: 785 x 870 km, 98.3° (Epoch: 25 September)

Date Brightness Start Highest point End Pass type
(mag) Time Alt. Az. Time Alt. Az. Time Alt. Az.
26 Sep 3.2 20:20:10 10° N 20:25:41 60° WNW 20:31:11 10° SSW visible
27 Sep 2.6 20:01:33 10° NNE 20:07:10 86° ESE 20:12:46 10° S visible
28 Sep 2.8 19:43:10 10° NNE 19:48:38 54° E 19:54:03 10° S visible
28 Sep 5.6 21:26:22 10° NW 21:28:23 12° WNW 21:30:23 10° W visible
29 Sep 3.3 19:25:02 10° NE 19:30:04 34° E 19:35:02 10° SSE visible
29 Sep 5.1 21:06:05 10° NNW 21:09:59 20° WNW 21:13:52 10° WSW visible
30 Sep 3.8 19:07:18 10° NE 19:11:28 21° E 19:15:34 10° SSE visible
30 Sep 4.4 20:46:42 10° NNW 20:51:34 31° WNW 20:56:22 10° SW visible
01 Oct 4.3 18:50:26 10° ENE 18:52:51 13° E 18:55:15 10° ESE visible
01 Oct 3.6 20:27:43 10° N 20:33:06 48° WNW 20:38:25 10° SSW visible
02 Oct 2.8 20:08:59 10° N 20:14:35 77° WNW 20:20:08 10° SSW visible
03 Oct 2.6 19:50:29 10° NNE 19:56:04 67° ESE 20:01:33 10° S visible
04 Oct 3.0 19:32:14 10° NNE 19:37:30 42° E 19:42:40 10° S visible
04 Oct 5.3 21:14:08 10° NW 21:17:20 16° WNW 21:20:31 10° WSW visible
05 Oct 3.6 19:14:19 10° NE 19:18:55 26° E 19:23:27 10° SSE visible
05 Oct 4.7 20:54:29 10° NNW 20:58:55 25° WNW 21:03:20 10° SW visible
